2022/03/29 23:31:33+0000,-36.09,-46.53,-33.85,-49.39,-51.03,-55.65
2022/03/29 23:32:25+0000,-34.57,-46.63,-33.85,-49.00,-54.54,-53.51
2022/03/29 23:33:17+0000,-36.42,-48.10,-33.39,-48.42,-52.50,-56.46
2022/03/29 23:34:09+0000,-34.17,-47.76,-33.95,-47.99,-53.76,-55.95
2022/03/29 23:35:01+0000,-34.63,-47.12,-33.85,-48.88,-53.57,-56.48
2022/03/29 23:35:53+0000,-33.88,-46.31,-33.06,-49.68,-53.08,-54.05
2022/03/29 23:36:45+0000,-35.16,-47.05,-33.47,-48.20,-53.35,-55.40
2022/03/29 23:37:37+0000,-33.67,-47.94,-33.12,-48.79,-53.35,-55.27
2022/03/29 23:38:29+0000,-33.95,-47.51,-34.02,-49.12,-53.83,-54.41
2022/03/29 23:39:21+0000,-36.09,-46.96,-33.92,-48.67,-52.19,-55.85
2022/03/29 23:40:14+0000,-32.36,-47.47,-33.98,-49.19,-53.69,-56.28
2022/03/29 23:41:13+0000,-34.74,-48.04,-33.93,-49.04,-51.46,-56.52
2022/03/29 23:42:05+0000,-33.36,-47.89,-33.61,-49.36,-52.60,-56.24
2022/03/29 23:42:57+0000,-32.73,-46.00,-33.44,-49.96,-53.70,-56.19
2022/03/29 23:43:49+0000,-33.24,-47.65,-33.50,-49.62,-50.61,-56.09
2022/03/29 23:44:42+0000,-34.12,-46.54,-33.32,-46.39,-54.96,-55.78
2022/03/29 23:45:34+0000,-34.02,-46.83,-33.44,-49.94,-52.96,-56.62
2022/03/29 23:46:26+0000,-33.81,-46.81,-33.88,-48.87,-54.78,-55.95
2022/03/29 23:47:18+0000,-33.73,-47.96,-33.61,-45.14,-52.57,-56.45
2022/03/29 23:48:10+0000,-34.90,-45.88,-33.66,-46.96,-53.35,-55.51
2022/03/29 23:49:02+0000,-33.45,-47.60,-33.24,-49.68,-52.67,-55.83
2022/03/29 23:49:54+0000,-34.15,-46.68,-33.79,-48.63,-52.77,-54.67
2022/03/29 23:50:46+0000,-36.37,-46.19,-33.64,-45.44,-51.72,-55.16
2022/03/29 23:51:44+0000,-34.70,-45.55,-33.87,-46.25,-52.40,-55.63
2022/03/29 23:52:36+0000,-33.89,-45.87,-33.60,-49.06,-50.45,-54.01
2022/03/29 23:53:28+0000,-33.32,-45.79,-33.59,-48.73,-53.22,-54.07
2022/03/29 23:54:20+0000,-34.95,-46.72,-32.94,-50.25,-51.30,-53.90
2022/03/29 23:55:12+0000,-34.09,-46.94,-33.21,-48.76,-54.02,-54.97
2022/03/29 23:56:04+0000,-33.45,-45.80,-34.43,-49.44,-49.38,-54.70
2022/03/29 23:56:56+0000,-34.26,-46.58,-33.53,-48.39,-53.84,-54.58
2022/03/29 23:57:48+0000,-34.55,-46.55,-33.95,-17.13,-51.48,-54.06
2022/03/29 23:58:40+0000,-35.33,-48.33,-33.86,-48.00,-52.34,-54.03
2022/03/29 23:59:32+0000,-33.58,-47.08,-33.74,-47.13,-52.12,-54.97
2022/03/30 00:00:24+0000,-33.87,-47.62,-33.39,-18.03,-53.60,-54.17
2022/03/30 00:01:26+0000,-33.83,-49.69,-33.21,-44.16,-52.05,-53.62
2022/03/30 00:02:19+0000,-34.57,-48.16,-33.64,-48.36,-51.98,-53.36
2022/03/30 00:03:11+0000,-32.64,-48.36,-33.44,-47.08,-52.84,-50.81
2022/03/30 00:04:03+0000,-33.90,-48.92,-33.66,-48.64,-50.32,-50.86
2022/03/30 00:04:55+0000,-33.93,-49.48,-33.22,-47.93,-53.07,-53.97
2022/03/30 00:05:47+0000,-34.81,-47.23,-34.09,-15.92,-51.03,-54.87
2022/03/30 00:06:39+0000,-34.55,-47.98,-33.55,-15.63,-54.15,-54.20
2022/03/30 00:07:31+0000,-33.45,-48.23,-33.12,-48.94,-52.54,-54.76
2022/03/30 00:08:23+0000,-34.63,-48.59,-33.75,-15.90,-51.25,-53.48
2022/03/30 00:09:15+0000,-35.36,-49.28,-33.28,-46.56,-52.47,-54.96
2022/03/30 00:10:07+0000,-34.06,-48.24,-33.68,-47.57,-52.54,-54.30
2022/03/30 00:11:10+0000,-35.20,-47.39,-33.33,-16.00,-53.57,-54.36
2022/03/30 00:12:02+0000,-35.97,-49.24,-33.22,-49.36,-51.70,-54.21
2022/03/30 00:12:54+0000,-33.89,-48.98,-33.65,-48.13,-54.64,-54.20
2022/03/30 00:13:46+0000,-35.46,-47.18,-33.71,-47.48,-51.77,-54.00
2022/03/30 00:14:38+0000,-34.22,-47.84,-33.37,-16.32,-48.97,-54.49
2022/03/30 00:15:30+0000,-35.05,-48.87,-33.12,-15.41,-50.92,-54.66
2022/03/30 00:16:22+0000,-35.65,-48.81,-33.29,-15.98,-52.59,-53.54
2022/03/30 00:17:14+0000,-35.91,-48.74,-33.20,-46.40,-53.28,-54.37
2022/03/30 00:18:06+0000,-35.29,-49.84,-32.86,-46.06,-49.44,-54.44
2022/03/30 00:18:59+0000,-35.25,-47.91,-33.58,-15.49,-49.64,-53.49
2022/03/30 00:19:51+0000,-33.69,-45.95,-33.61,-47.58,-54.48,-54.42
2022/03/30 00:20:43+0000,-36.09,-46.96,-33.52,-47.41,-53.30,-54.78
2022/03/30 00:21:43+0000,-33.47,-46.72,-33.01,-15.78,-53.60,-54.38
2022/03/30 00:22:35+0000,-33.31,-47.03,-32.89,-46.30,-50.98,-55.17
2022/03/30 00:23:27+0000,-35.86,-47.41,-33.46,-46.77,-51.25,-54.71
2022/03/30 00:24:19+0000,-35.16,-47.56,-33.36,-47.73,-53.24,-54.26
2022/03/30 00:25:11+0000,-33.20,-48.53,-33.13,-47.45,-53.42,-54.53
2022/03/30 00:26:03+0000,-35.58,-48.11,-32.78,-48.15,-49.97,-54.06
2022/03/30 00:26:55+0000,-34.75,-48.45,-32.90,-47.18,-54.03,-55.32
2022/03/30 00:27:47+0000,-33.37,-47.85,-33.44,-46.37,-53.87,-54.77
2022/03/30 00:28:39+0000,-33.32,-47.68,-32.93,-46.24,-50.98,-52.88
2022/03/30 00:29:31+0000,-34.85,-46.90,-33.36,-47.56,-51.92,-54.89
2022/03/30 00:30:23+0000,-33.19,-48.10,-32.91,-46.43,-53.39,-53.77
2022/03/30 00:31:24+0000,-35.53,-48.17,-32.58,-46.61,-53.60,-53.88
2022/03/30 00:32:16+0000,-33.96,-48.35,-32.90,-47.31,-53.65,-54.04
2022/03/30 00:33:08+0000,-34.10,-47.42,-32.94,-46.12,-51.65,-54.17
2022/03/30 00:34:00+0000,-36.19,-49.00,-33.55,-47.58,-52.38,-53.33
2022/03/30 00:34:52+0000,-35.74,-48.79,-33.18,-47.47,-52.53,-53.25
2022/03/30 00:35:44+0000,-35.14,-49.02,-33.05,-45.69,-53.68,-54.46
2022/03/30 00:36:36+0000,-31.39,-48.82,-33.14,-47.49,-52.63,-54.89
2022/03/30 00:37:28+0000,-33.19,-47.82,-33.06,-47.03,-53.13,-54.84
2022/03/30 00:38:20+0000,-33.39,-48.76,-32.60,-48.19,-52.40,-54.59
2022/03/30 00:39:12+0000,-34.35,-48.75,-33.54,-45.98,-54.19,-54.45
2022/03/30 00:40:04+0000,-35.77,-49.11,-33.58,-49.22,-51.61,-55.30
2022/03/30 00:41:02+0000,-35.93,-49.94,-32.86,-48.66,-52.19,-55.07
2022/03/30 00:41:54+0000,-33.12,-48.00,-32.98,-48.96,-53.31,-53.39
2022/03/30 00:42:46+0000,-33.23,-47.79,-33.14,-46.76,-53.38,-55.26
2022/03/30 00:43:38+0000,-33.62,-47.93,-33.82,-47.42,-49.97,-54.34
2022/03/30 00:44:30+0000,-33.89,-47.82,-34.44,-48.28,-50.26,-54.74
2022/03/30 00:45:22+0000,-34.45,-48.37,-34.06,-47.80,-53.14,-53.42
2022/03/30 00:46:14+0000,-34.98,-48.45,-33.23,-45.63,-53.34,-54.77
2022/03/30 00:47:06+0000,-33.28,-48.83,-33.73,-46.57,-51.64,-54.65
2022/03/30 00:47:58+0000,-34.44,-48.56,-33.68,-48.56,-51.43,-53.45
2022/03/30 00:48:50+0000,-34.75,-46.77,-33.10,-49.71,-53.57,-53.92
2022/03/30 00:49:43+0000,-34.59,-47.97,-33.39,-47.96,-53.92,-54.83
2022/03/30 00:50:35+0000,-34.22,-48.01,-33.43,-49.27,-51.75,-55.14
2022/03/30 00:51:33+0000,-33.19,-48.18,-33.97,-47.70,-50.87,-55.35
2022/03/30 00:52:25+0000,-33.05,-47.92,-33.60,-47.62,-52.73,-53.88
2022/03/30 00:53:17+0000,-32.99,-46.63,-33.24,-46.84,-52.97,-56.02
2022/03/30 00:54:09+0000,-33.20,-46.93,-33.83,-45.86,-51.25,-54.81
2022/03/30 00:55:01+0000,-34.56,-48.89,-34.24,-48.36,-52.19,-54.53
2022/03/30 00:55:53+0000,-32.79,-48.60,-33.64,-47.94,-52.63,-54.74
2022/03/30 00:56:45+0000,-32.17,-48.49,-34.04,-47.14,-52.60,-54.45
2022/03/30 00:57:37+0000,-35.83,-49.36,-33.23,-47.74,-52.27,-54.61
2022/03/30 00:58:29+0000,-34.57,-48.34,-33.88,-48.92,-52.65,-55.31
2022/03/30 00:59:21+0000,-33.02,-48.13,-33.68,-48.56,-52.69,-55.48
2022/03/30 01:00:14+0000,-35.14,-48.38,-33.62,-45.88,-53.43,-54.96
2022/03/30 01:01:12+0000,-34.88,-47.96,-33.60,-46.60,-52.24,-55.25
2022/03/30 01:02:04+0000,-34.89,-49.21,-34.16,-48.37,-53.26,-55.47
2022/03/30 01:02:56+0000,-33.19,-47.94,-33.65,-48.34,-53.72,-54.07
2022/03/30 01:03:48+0000,-35.10,-47.24,-34.22,-49.71,-52.40,-54.05
2022/03/30 01:04:40+0000,-32.44,-46.45,-33.43,-44.36,-54.69,-55.20
2022/03/30 01:05:32+0000,-34.36,-48.62,-33.31,-48.95,-53.71,-55.10
2022/03/30 01:06:24+0000,-35.68,-48.46,-33.34,-47.32,-55.01,-54.14
2022/03/30 01:07:17+0000,-35.95,-48.84,-33.35,-45.41,-52.97,-55.63
2022/03/30 01:08:09+0000,-33.31,-48.17,-33.40,-45.14,-53.89,-55.93
2022/03/30 01:09:01+0000,-35.24,-49.07,-32.80,-48.03,-50.90,-55.32
2022/03/30 01:09:53+0000,-35.55,-47.79,-32.77,-48.06,-53.60,-53.74
2022/03/30 01:10:45+0000,-35.69,-47.76,-32.81,-44.81,-53.93,-54.99
2022/03/30 01:11:43+0000,-33.55,-48.72,-33.05,-46.91,-53.66,-54.86
2022/03/30 01:12:35+0000,-33.12,-49.68,-33.51,-47.12,-51.55,-55.47
2022/03/30 01:13:27+0000,-34.79,-48.83,-33.59,-47.68,-53.22,-55.46
2022/03/30 01:14:19+0000,-33.76,-49.24,-33.31,-48.22,-53.47,-54.96
2022/03/30 01:15:11+0000,-35.71,-48.18,-33.72,-46.29,-54.29,-55.65
2022/03/30 01:16:03+0000,-35.25,-48.29,-33.36,-48.72,-51.52,-54.82
2022/03/30 01:16:55+0000,-33.84,-48.43,-33.76,-47.96,-53.84,-53.70
2022/03/30 01:17:47+0000,-33.11,-48.50,-33.09,-44.98,-52.88,-55.14
2022/03/30 01:18:39+0000,-33.65,-49.20,-32.95,-46.28,-54.33,-55.38
2022/03/30 01:19:31+0000,-33.02,-49.19,-33.75,-48.72,-51.18,-55.29
2022/03/30 01:20:23+0000,-34.35,-48.74,-33.72,-47.90,-52.85,-53.70
2022/03/30 01:21:21+0000,-35.33,-49.23,-33.33,-48.24,-51.70,-55.09
2022/03/30 01:22:13+0000,-33.45,-48.08,-33.35,-46.76,-52.89,-55.11
2022/03/30 01:23:05+0000,-33.11,-47.71,-33.28,-46.83,-50.50,-55.00
2022/03/30 01:23:57+0000,-33.11,-47.66,-33.07,-46.28,-52.59,-54.65
2022/03/30 01:24:49+0000,-35.02,-48.16,-33.36,-49.07,-52.94,-55.02
2022/03/30 01:25:41+0000,-32.98,-47.37,-33.30,-46.97,-52.32,-55.26
2022/03/30 01:26:33+0000,-32.81,-48.32,-33.19,-48.79,-49.73,-55.16
2022/03/30 01:27:26+0000,-33.38,-47.98,-33.14,-47.66,-53.96,-54.84
2022/03/30 01:28:18+0000,-32.83,-47.08,-33.49,-46.65,-53.08,-55.89
2022/03/30 01:29:10+0000,-34.17,-47.25,-33.70,-46.39,-54.28,-55.62
2022/03/30 01:30:02+0000,-34.18,-47.69,-32.77,-47.05,-52.79,-55.49
2022/03/30 01:31:07+0000,-33.84,-49.04,-33.16,-46.07,-53.40,-55.47
2022/03/30 01:31:59+0000,-32.82,-48.10,-33.44,-47.47,-52.66,-55.67
2022/03/30 01:32:51+0000,-33.89,-49.71,-33.50,-47.79,-53.60,-55.29
2022/03/30 01:33:43+0000,-31.89,-48.32,-33.53,-45.58,-53.99,-54.76
2022/03/30 01:34:35+0000,-32.87,-48.38,-33.11,-49.49,-53.15,-55.50
2022/03/30 01:35:27+0000,-34.58,-48.61,-33.39,-48.24,-53.03,-55.89
2022/03/30 01:36:19+0000,-32.50,-48.96,-33.23,-49.95,-51.26,-55.24
2022/03/30 01:37:11+0000,-34.64,-48.44,-33.18,-45.21,-54.19,-55.32
2022/03/30 01:38:03+0000,-33.21,-48.31,-32.80,-42.60,-51.74,-55.65
2022/03/30 01:38:55+0000,-32.24,-45.35,-33.87,-43.65,-53.55,-55.00
2022/03/30 01:39:48+0000,-34.06,-46.98,-33.62,-46.21,-53.08,-54.76
2022/03/30 01:40:40+0000,-34.62,-45.30,-33.78,-45.92,-51.10,-55.41
2022/03/30 01:41:40+0000,-34.80,-46.77,-33.37,-45.07,-53.27,-55.12
2022/03/30 01:42:32+0000,-33.97,-47.91,-34.00,-49.34,-49.91,-55.57
2022/03/30 01:43:25+0000,-34.28,-45.31,-33.75,-49.28,-53.31,-55.10
2022/03/30 01:44:17+0000,-32.90,-46.85,-33.83,-46.39,-52.06,-55.02
2022/03/30 01:45:09+0000,-32.91,-46.14,-34.20,-46.10,-46.68,-55.62
2022/03/30 01:46:01+0000,-35.20,-46.89,-33.33,-49.13,-48.03,-55.61
2022/03/30 01:46:53+0000,-33.30,-50.34,-33.02,-47.95,-53.24,-55.37
2022/03/30 01:47:45+0000,-32.49,-47.82,-33.61,-47.20,-53.63,-55.15
2022/03/30 01:48:37+0000,-32.56,-49.08,-32.71,-47.52,-48.93,-54.23
2022/03/30 01:49:29+0000,-34.76,-47.76,-33.42,-48.46,-49.31,-55.22
2022/03/30 01:50:21+0000,-34.07,-49.13,-33.71,-49.24,-53.29,-55.44
2022/03/30 01:51:21+0000,-33.05,-48.57,-33.07,-49.47,-52.88,-55.63
2022/03/30 01:52:13+0000,-32.42,-46.98,-32.80,-48.27,-53.60,-55.53
2022/03/30 01:53:05+0000,-34.36,-46.14,-33.11,-50.28,-46.82,-54.73
2022/03/30 01:53:57+0000,-33.07,-46.05,-34.24,-48.61,-54.23,-53.99
2022/03/30 01:54:49+0000,-32.90,-45.52,-33.54,-49.89,-52.53,-54.38
2022/03/30 01:55:41+0000,-35.15,-45.37,-33.77,-47.81,-53.40,-53.90
2022/03/30 01:56:33+0000,-33.21,-45.49,-33.66,-48.36,-49.64,-53.98
2022/03/30 01:57:25+0000,-33.95,-44.55,-33.87,-48.70,-52.95,-53.98
2022/03/30 01:58:17+0000,-29.03,-43.88,-33.09,-47.54,-53.38,-53.86
2022/03/30 01:59:09+0000,-33.14,-44.71,-33.66,-48.10,-49.39,-54.05
2022/03/30 02:00:02+0000,-34.47,-45.96,-33.44,-47.93,-51.96,-54.50
2022/03/30 02:01:03+0000,-33.70,-46.66,-33.15,-48.84,-49.90,-54.19
2022/03/30 02:01:55+0000,-33.20,-47.53,-32.97,-48.50,-52.79,-54.25
2022/03/30 02:02:47+0000,-32.59,-47.28,-33.30,-46.76,-52.93,-53.95
2022/03/30 02:03:39+0000,-34.14,-46.60,-33.33,-45.31,-53.20,-54.08
2022/03/30 02:04:31+0000,-33.96,-45.87,-33.00,-47.48,-48.13,-52.01
2022/03/30 02:05:23+0000,-33.88,-47.09,-32.87,-47.34,-48.29,-52.19
2022/03/30 02:06:15+0000,-33.83,-44.65,-33.47,-46.86,-49.00,-52.80
2022/03/30 02:07:07+0000,-34.42,-46.13,-33.46,-46.07,-48.20,-52.93
2022/03/30 02:07:59+0000,-32.74,-46.43,-32.55,-48.35,-47.44,-52.37
2022/03/30 02:08:51+0000,-33.95,-47.93,-33.06,-47.07,-48.57,-52.42
2022/03/30 02:09:43+0000,-33.62,-45.38,-33.06,-46.90,-48.47,-52.30
2022/03/30 02:10:35+0000,-34.39,-47.60,-32.94,-46.81,-47.15,-52.63
2022/03/30 02:11:35+0000,-33.64,-46.71,-34.18,-46.98,-46.69,-52.42
2022/03/30 02:12:27+0000,-34.55,-44.99,-33.60,-47.86,-47.04,-52.44
2022/03/30 02:13:19+0000,-34.52,-44.18,-32.55,-49.84,-47.85,-52.78
2022/03/30 02:14:11+0000,-34.41,-42.10,-34.19,-47.15,-46.56,-52.71
2022/03/30 02:15:03+0000,-33.02,-42.71,-33.82,-49.35,-46.64,-52.18
2022/03/30 02:15:55+0000,-32.73,-45.85,-33.78,-48.19,-47.76,-52.71
2022/03/30 02:16:47+0000,-34.57,-43.90,-34.00,-47.73,-46.77,-52.32
2022/03/30 02:17:39+0000,-35.51,-42.39,-33.71,-46.72,-49.06,-52.40
2022/03/30 02:18:31+0000,-32.60,-46.62,-32.74,-47.00,-48.34,-52.29
2022/03/30 02:19:23+0000,-32.63,-47.33,-32.79,-46.66,-45.71,-52.49
2022/03/30 02:20:16+0000,-33.38,-42.48,-33.03,-44.52,-48.28,-53.24
2022/03/30 02:21:16+0000,-32.29,-45.40,-32.54,-43.63,-46.03,-53.21
2022/03/30 02:22:08+0000,-34.13,-43.85,-32.27,-43.98,-48.49,-52.39
2022/03/30 02:23:00+0000,-34.56,-46.71,-33.07,-47.71,-48.31,-52.78
2022/03/30 02:23:52+0000,-33.84,-45.67,-32.83,-48.39,-45.67,-52.82
2022/03/30 02:24:44+0000,-33.14,-43.62,-32.90,-47.21,-47.20,-52.21
2022/03/30 02:25:36+0000,-31.82,-45.36,-32.79,-47.08,-46.34,-52.23
2022/03/30 02:26:28+0000,-32.86,-45.19,-33.18,-48.44,-47.50,-52.25
2022/03/30 02:27:20+0000,-34.66,-45.54,-32.89,-50.93,-46.84,-52.53
2022/03/30 02:28:12+0000,-32.67,-44.01,-33.00,-48.08,-47.19,-52.48
2022/03/30 02:29:04+0000,-32.41,-45.12,-32.96,-50.12,-47.20,-53.03
2022/03/30 02:29:57+0000,-33.74,-45.68,-33.65,-48.70,-48.17,-52.93
2022/03/30 02:30:49+0000,-33.24,-45.31,-33.07,-50.61,-47.06,-53.20
2022/03/30 02:31:47+0000,-34.60,-43.83,-32.92,-45.43,-47.66,-52.70
2022/03/30 02:32:39+0000,-33.77,-43.76,-32.68,-47.78,-47.46,-53.57
2022/03/30 02:33:31+0000,-35.22,-45.84,-32.53,-45.27,-47.74,-52.69
2022/03/30 02:34:23+0000,-34.98,-46.35,-32.73,-49.39,-48.04,-53.07
2022/03/30 02:35:15+0000,-32.48,-44.15,-32.52,-48.16,-48.26,-52.63
2022/03/30 02:36:07+0000,-35.11,-46.73,-32.48,-47.21,-47.55,-52.73
2022/03/30 02:36:59+0000,-33.42,-46.80,-32.55,-48.84,-47.75,-53.26
2022/03/30 02:37:51+0000,-31.78,-48.19,-32.35,-48.88,-48.15,-53.01
2022/03/30 02:38:43+0000,-33.92,-46.39,-32.52,-46.68,-48.65,-53.22
2022/03/30 02:39:35+0000,-34.81,-47.78,-31.80,-49.69,-48.57,-52.87
2022/03/30 02:40:27+0000,-32.82,-47.58,-32.45,-48.84,-48.28,-52.89
2022/03/30 02:41:32+0000,-34.37,-47.24,-32.00,-49.58,-48.48,-53.26
2022/03/30 02:42:24+0000,-32.24,-45.67,-31.88,-49.75,-48.61,-52.80
2022/03/30 02:43:16+0000,-33.43,-45.44,-32.18,-46.89,-48.23,-53.35
2022/03/30 02:44:08+0000,-35.04,-48.01,-32.29,-46.14,-47.91,-52.81
2022/03/30 02:45:00+0000,-34.82,-46.47,-32.08,-48.26,-47.54,-53.05
2022/03/30 02:45:52+0000,-32.85,-48.02,-31.40,-48.43,-48.61,-52.83
2022/03/30 02:46:44+0000,-34.86,-42.14,-33.36,-47.74,-46.56,-53.27
2022/03/30 02:47:36+0000,-32.76,-44.22,-33.30,-48.82,-46.75,-52.82
2022/03/30 02:48:28+0000,-34.15,-43.75,-33.15,-48.05,-47.51,-52.77
2022/03/30 02:49:20+0000,-35.16,-43.66,-32.74,-48.78,-48.13,-52.81
2022/03/30 02:50:13+0000,-32.70,-43.69,-32.57,-46.94,-49.25,-53.27
2022/03/30 02:51:12+0000,-31.77,-44.68,-32.57,-46.63,-48.40,-53.05
2022/03/30 02:52:04+0000,-34.43,-47.41,-31.77,-49.66,-49.07,-52.83
2022/03/30 02:52:56+0000,-31.98,-47.32,-32.17,-47.71,-48.65,-52.95
2022/03/30 02:53:48+0000,-34.43,-44.31,-32.18,-46.26,-48.57,-52.63
2022/03/30 02:54:40+0000,-34.61,-45.26,-32.07,-45.92,-48.73,-53.04
2022/03/30 02:55:33+0000,-33.95,-44.36,-31.92,-47.42,-48.59,-52.75
2022/03/30 02:56:25+0000,-32.50,-43.30,-32.10,-47.78,-48.39,-52.88
2022/03/30 02:57:17+0000,-34.64,-44.86,-31.90,-47.38,-47.95,-53.21
2022/03/30 02:58:09+0000,-33.79,-46.88,-31.91,-47.98,-46.83,-52.97
2022/03/30 02:59:01+0000,-33.24,-41.78,-33.03,-48.04,-46.41,-52.59
2022/03/30 02:59:53+0000,-33.70,-44.81,-32.88,-48.92,-47.19,-52.86
2022/03/30 03:00:45+0000,-34.43,-43.66,-32.53,-46.60,-47.72,-52.62
2022/03/30 03:01:46+0000,-34.37,-42.79,-32.62,-46.88,-47.79,-52.96
2022/03/30 03:02:38+0000,-34.76,-43.17,-32.65,-47.63,-47.80,-53.19
2022/03/30 03:03:30+0000,-33.57,-43.64,-32.00,-47.32,-48.95,-53.26
2022/03/30 03:04:22+0000,-32.93,-45.28,-32.21,-48.57,-48.96,-52.88
2022/03/30 03:05:14+0000,-34.27,-45.40,-32.30,-46.91,-49.30,-53.15
2022/03/30 03:06:06+0000,-33.12,-47.97,-31.84,-47.95,-49.18,-52.96
2022/03/30 03:06:58+0000,-33.31,-47.24,-31.95,-47.82,-49.59,-52.51
2022/03/30 03:07:50+0000,-33.68,-47.57,-32.10,-47.76,-49.49,-53.26
2022/03/30 03:08:42+0000,-33.21,-44.66,-32.46,-48.24,-49.25,-52.56
2022/03/30 03:09:34+0000,-34.50,-46.23,-32.33,-48.38,-49.58,-52.59
2022/03/30 03:10:26+0000,-32.81,-45.39,-32.58,-47.62,-49.50,-52.39
2022/03/30 03:11:27+0000,-33.12,-45.68,-32.11,-48.01,-48.84,-52.45
2022/03/30 03:12:19+0000,-33.09,-45.40,-32.76,-49.17,-49.33,-52.62
2022/03/30 03:13:11+0000,-34.98,-45.20,-32.51,-45.83,-49.61,-52.48
2022/03/30 03:14:03+0000,-32.48,-45.97,-31.82,-49.85,-48.75,-52.01
2022/03/30 03:14:55+0000,-32.95,-45.89,-31.41,-48.84,-49.86,-52.68
2022/03/30 03:15:47+0000,-33.58,-42.65,-31.95,-45.61,-49.71,-53.15
2022/03/30 03:16:39+0000,-33.79,-42.03,-32.59,-47.52,-49.23,-52.74
2022/03/30 03:17:31+0000,-34.45,-46.56,-32.48,-46.10,-49.74,-52.89
2022/03/30 03:18:23+0000,-33.18,-45.76,-31.75,-47.23,-49.64,-52.71
2022/03/30 03:19:15+0000,-33.22,-43.51,-32.06,-48.46,-49.13,-52.96
2022/03/30 03:20:07+0000,-34.20,-47.44,-32.29,-48.12,-49.63,-53.13
2022/03/30 03:21:07+0000,-34.28,-47.29,-32.12,-48.64,-49.21,-53.32
2022/03/30 03:21:59+0000,-32.16,-43.52,-32.30,-48.64,-49.18,-52.38
2022/03/30 03:22:51+0000,-34.71,-47.25,-32.58,-48.70,-50.15,-53.33
2022/03/30 03:23:43+0000,-32.40,-45.32,-32.77,-47.92,-49.96,-52.59
2022/03/30 03:24:35+0000,-34.73,-46.52,-32.69,-48.70,-49.76,-52.96
2022/03/30 03:25:27+0000,-33.32,-44.70,-32.27,-48.26,-49.35,-52.76
2022/03/30 03:26:19+0000,-33.43,-45.79,-31.68,-49.87,-50.05,-52.36
2022/03/30 03:27:11+0000,-34.43,-46.11,-32.74,-48.97,-50.44,-52.39
2022/03/30 03:28:04+0000,-32.78,-43.33,-32.15,-49.38,-49.98,-52.52
2022/03/30 03:28:56+0000,-33.63,-43.67,-31.82,-49.10,-49.57,-52.79
2022/03/30 03:29:48+0000,-33.04,-46.41,-31.71,-49.44,-49.86,-52.80
2022/03/30 03:30:40+0000,-34.64,-45.05,-32.43,-46.76,-49.52,-52.68
2022/03/30 03:31:40+0000,-33.07,-44.20,-32.39,-46.20,-48.69,-52.58
2022/03/30 03:32:32+0000,-35.74,-42.01,-33.42,-49.49,-49.07,-52.34
2022/03/30 03:33:24+0000,-33.85,-42.61,-32.53,-48.18,-48.80,-52.63
2022/03/30 03:34:17+0000,-33.14,-42.33,-33.38,-45.92,-48.13,-52.54
2022/03/30 03:35:09+0000,-33.54,-41.98,-33.70,-45.93,-48.98,-52.77
2022/03/30 03:36:01+0000,-34.21,-43.51,-33.93,-47.60,-48.41,-52.72
2022/03/30 03:36:53+0000,-33.31,-44.26,-33.13,-49.09,-48.86,-52.74
2022/03/30 03:37:45+0000,-34.28,-42.94,-33.07,-47.36,-49.73,-52.70
2022/03/30 03:38:37+0000,-32.30,-46.56,-32.23,-47.43,-50.31,-52.70
2022/03/30 03:39:29+0000,-33.50,-43.88,-32.29,-49.48,-49.99,-52.94
2022/03/30 03:40:21+0000,-31.54,-46.50,-32.17,-48.67,-49.86,-52.67
2022/03/30 03:41:21+0000,-32.84,-46.44,-32.05,-49.20,-49.69,-52.75
2022/03/30 03:42:13+0000,-32.09,-42.94,-32.34,-48.89,-50.10,-52.89
2022/03/30 03:43:05+0000,-32.59,-46.07,-33.12,-48.69,-50.03,-52.89
2022/03/30 03:43:57+0000,-32.30,-46.30,-31.45,-48.92,-48.35,-52.97
2022/03/30 03:44:49+0000,-32.83,-42.95,-33.16,-50.08,-48.23,-52.80
2022/03/30 03:45:41+0000,-33.98,-42.76,-32.84,-48.42,-49.08,-52.64
2022/03/30 03:46:33+0000,-34.13,-43.91,-33.08,-48.45,-50.07,-52.90
2022/03/30 03:47:25+0000,-35.10,-45.25,-32.66,-49.10,-50.42,-53.35
2022/03/30 03:48:17+0000,-32.65,-44.41,-32.02,-45.07,-49.56,-52.42
2022/03/30 03:49:09+0000,-33.33,-45.26,-32.76,-48.63,-49.98,-52.80
2022/03/30 03:50:01+0000,-34.11,-44.29,-32.29,-47.98,-49.89,-52.32
2022/03/30 03:51:01+0000,-33.33,-45.36,-32.34,-47.87,-49.67,-52.78
2022/03/30 03:51:53+0000,-32.49,-46.18,-31.48,-48.93,-50.16,-52.95
2022/03/30 03:52:45+0000,-34.36,-43.76,-31.95,-46.96,-49.71,-53.08
2022/03/30 03:53:37+0000,-34.32,-47.19,-32.24,-48.79,-50.60,-52.44
2022/03/30 03:54:29+0000,-32.92,-44.78,-32.77,-46.68,-49.92,-52.86
2022/03/30 03:55:21+0000,-32.69,-47.42,-32.52,-46.51,-49.75,-52.48
2022/03/30 03:56:14+0000,-34.84,-45.78,-33.15,-46.59,-50.31,-52.77
2022/03/30 03:57:06+0000,-34.48,-45.26,-33.15,-50.05,-51.16,-52.91
2022/03/30 03:57:58+0000,-34.34,-43.00,-33.30,-49.07,-50.44,-53.88
2022/03/30 03:58:50+0000,-32.45,-44.81,-31.55,-49.20,-49.61,-53.16
2022/03/30 03:59:42+0000,-34.27,-46.45,-32.35,-48.42,-49.80,-53.33
2022/03/30 04:00:34+0000,-33.75,-46.35,-32.19,-49.22,-49.83,-53.43
2022/03/30 04:01:35+0000,-33.95,-47.32,-31.81,-47.20,-50.79,-53.46
2022/03/30 04:02:27+0000,-32.57,-45.20,-32.19,-49.71,-49.69,-53.54
2022/03/30 04:03:19+0000,-33.23,-44.22,-31.40,-49.26,-49.70,-53.78
2022/03/30 04:04:11+0000,-31.95,-44.97,-31.74,-47.49,-50.20,-54.00
2022/03/30 04:05:03+0000,-33.98,-46.07,-31.85,-50.12,-50.06,-53.83
2022/03/30 04:05:55+0000,-32.89,-44.32,-31.74,-50.24,-49.53,-53.51
2022/03/30 04:06:47+0000,-33.98,-44.47,-32.05,-49.72,-50.01,-54.00
2022/03/30 04:07:39+0000,-34.11,-44.13,-31.35,-47.97,-49.56,-53.56
2022/03/30 04:08:31+0000,-35.14,-44.58,-32.30,-49.27,-49.53,-53.54
2022/03/30 04:09:23+0000,-31.70,-43.98,-31.02,-49.26,-49.53,-53.95
2022/03/30 04:10:16+0000,-33.82,-44.81,-31.23,-48.34,-49.74,-53.59
2022/03/30 04:11:16+0000,-31.53,-43.14,-31.25,-48.23,-49.25,-53.50
2022/03/30 04:12:08+0000,-32.45,-43.29,-31.74,-48.85,-49.49,-53.52
2022/03/30 04:13:00+0000,-31.73,-43.85,-31.55,-48.84,-49.06,-53.59
2022/03/30 04:13:52+0000,-32.99,-45.19,-31.42,-49.41,-49.19,-53.64
2022/03/30 04:14:44+0000,-31.71,-43.92,-32.51,-49.28,-48.72,-53.34
2022/03/30 04:15:36+0000,-31.72,-45.41,-31.34,-49.56,-49.33,-53.66
2022/03/30 04:16:28+0000,-32.54,-44.45,-32.03,-49.54,-49.17,-53.55
2022/03/30 04:17:20+0000,-31.47,-45.87,-31.39,-50.12,-48.45,-54.16
2022/03/30 04:18:13+0000,-32.06,-44.15,-31.87,-49.12,-48.93,-54.37
2022/03/30 04:19:05+0000,-32.49,-44.45,-32.03,-50.33,-48.95,-53.74
2022/03/30 04:19:57+0000,-33.18,-44.42,-31.46,-49.79,-48.97,-53.66
2022/03/30 04:20:49+0000,-33.95,-45.36,-32.19,-49.88,-49.26,-54.45
2022/03/30 04:21:48+0000,-32.83,-43.70,-31.94,-49.35,-49.04,-53.76
2022/03/30 04:22:40+0000,-32.11,-44.95,-31.59,-50.16,-49.06,-53.58
2022/03/30 04:23:32+0000,-33.65,-43.08,-30.61,-49.47,-48.81,-53.53
2022/03/30 04:24:24+0000,-32.47,-44.15,-31.78,-50.51,-49.21,-53.40
2022/03/30 04:25:16+0000,-34.49,-44.00,-32.01,-50.05,-49.11,-54.04
2022/03/30 04:26:08+0000,-33.41,-44.68,-31.20,-49.28,-48.90,-54.06
2022/03/30 04:27:00+0000,-32.88,-44.20,-31.36,-49.71,-48.79,-54.27
2022/03/30 04:27:53+0000,-30.63,-46.91,-31.57,-50.02,-49.37,-54.20
2022/03/30 04:28:45+0000,-31.42,-44.82,-31.18,-49.67,-49.24,-54.13
2022/03/30 04:29:37+0000,-32.13,-44.51,-31.62,-50.89,-47.80,-54.43
2022/03/30 04:30:29+0000,-31.95,-42.77,-32.31,-50.07,-47.03,-53.61
2022/03/30 04:31:27+0000,-32.40,-42.30,-32.38,-49.61,-47.52,-53.56
2022/03/30 04:32:19+0000,-32.05,-43.55,-31.99,-50.25,-48.66,-53.99
2022/03/30 04:33:11+0000,-32.63,-42.97,-31.81,-49.75,-48.92,-54.35
2022/03/30 04:34:03+0000,-33.97,-44.32,-31.58,-49.89,-48.69,-53.67
2022/03/30 04:34:55+0000,-31.46,-44.41,-31.94,-48.84,-48.29,-54.22
2022/03/30 04:35:47+0000,-32.08,-44.02,-31.49,-50.23,-47.61,-54.00
2022/03/30 04:36:39+0000,-33.23,-43.66,-32.64,-50.35,-47.59,-53.38
2022/03/30 04:37:31+0000,-34.78,-43.11,-31.72,-49.14,-47.95,-54.03
2022/03/30 04:38:23+0000,-34.02,-44.85,-33.02,-49.87,-47.33,-53.78
2022/03/30 04:39:15+0000,-31.27,-43.25,-32.02,-50.40,-47.51,-53.86
2022/03/30 04:40:08+0000,-32.42,-44.03,-32.32,-49.64,-47.95,-53.73
2022/03/30 04:41:06+0000,-34.61,-42.84,-32.19,-50.70,-48.82,-53.86
2022/03/30 04:41:58+0000,-31.57,-43.16,-32.17,-50.42,-48.34,-53.79
2022/03/30 04:42:50+0000,-32.25,-44.06,-31.48,-50.10,-48.45,-54.66
2022/03/30 04:43:42+0000,-33.28,-44.44,-31.90,-50.71,-48.33,-53.79
2022/03/30 04:44:34+0000,-33.15,-44.09,-32.60,-50.35,-47.70,-54.02
2022/03/30 04:45:26+0000,-31.36,-43.12,-32.39,-49.66,-48.12,-54.07